This is the latest recevied weather packets stored in our database for station/object SP5FLS-15. If no packets are shown the sender has not sent any weather packets the latest 10 day(s).
| Time | Temp. | Humidity | Pressure | Rain* | Wind** | Luminosity | Snow |
|---|---|---|---|---|---|---|---|
| 1788272102 | 18.89° C | 73% | 1013.7 hPa | - | - | - | - |
| 1788271802 | 18.89° C | 69% | 1013.9 hPa | - | - | - | - |
| 1788271502 | 18.33° C | 70% | 1013.8 hPa | - | - | - | - |
| 1788271202 | 18.89° C | 81% | 1013.8 hPa | - | - | - | - |
| 1788270902 | 18.89° C | 80% | 1013.8 hPa | - | - | - | - |
| 1788270602 | 18.89° C | 77% | 1013.7 hPa | - | - | - | - |
| 1788270302 | 18.89° C | 80% | 1013.7 hPa | - | - | - | - |
| 1788270002 | 18.33° C | 75% | 1013.7 hPa | - | - | - | - |
| 1788269702 | 18.33° C | 72% | 1013.7 hPa | - | - | - | - |
| 1788269402 | 18.33° C | 78% | 1013.8 hPa | - | - | - | - |
| 1788269102 | 18.33° C | 78% | 1013.8 hPa | - | - | - | - |
| 1788268802 | 18.89° C | 74% | 1013.9 hPa | - | - | - | - |
| 1788268502 | 20° C | 80% | 1013.7 hPa | - | - | - | - |
| 1788268203 | 19.44° C | 70% | 1013.7 hPa | - | - | - | - |
| 1788267902 | 18.89° C | 77% | 1013.8 hPa | - | - | - | - |
| 1788267602 | 19.44° C | 72% | 1013.7 hPa | - | - | - | - |
| 1788267302 | 18.89° C | 70% | 1013.8 hPa | - | - | - | - |
| 1788267002 | 18.33° C | 66% | 1013.8 hPa | - | - | - | - |
| 1788266702 | 18.89° C | 71% | 1013.8 hPa | - | - | - | - |
| 1788266402 | 18.89° C | 71% | 1013.7 hPa | - | - | - | - |
| 1788266102 | 18.89° C | 72% | 1013.8 hPa | - | - | - | - |
| 1788265803 | 18.33° C | 64% | 1013.8 hPa | - | - | - | - |
| 1788265502 | 18.33° C | 68% | 1013.7 hPa | - | - | - | - |
| 1788265202 | 18.33° C | 59% | 1013.7 hPa | - | - | - | - |
| 1788264902 | 17.78° C | 55% | 1013.7 hPa | - | - | - | - |
* Rain since midnight (hover to see other rain measurements)
** Current wind speed in m/s (hover to see current wind gust speed)